QPF
0.00 0.00 0.00 0.00 0.00 0.00 0.00 0.00 0.00 0.00 0.00 0.00 0.01 0.01 0.02 0.03 0.02 0.02 0.02 0.03 0.03 0.02 0.01 0.00 0.00 0.00 0.00 0.00 0.00 0.00 0.00 0.00 0.00 0.00 0.00 0.00 0.00 0.00 0.00 0.00 0.00 0.00 0.00 0.00 0.00 0.00 0.00 0.00 0.00 0.00 0.00 0.00 0.00 0.00 0.00 0.00 0.00 0.00 0.00 0.00 0.00 0.00 0.00 0.00 0.00 0.00 0.00 0.00 0.00
0.00 0.00 0.00 0.00 0.00 0.00 0.00 0.00 0.00 0.00 0.00 0.00 0.01 0.03 0.04 0.04 0.04 0.03 0.03 0.03 0.02 0.02 0.01 0.01 0.00 0.00 0.00 0.00 0.00 0.00 0.00 0.00 0.00 0.00 0.00 0.00 0.00 0.00 0.00 0.00 0.00 0.00 0.00 0.00 0.00 0.00 0.00 0.00 0.00 0.00 0.00 0.00 0.00 0.00 0.00 0.00 0.00 0.00 0.00 0.00 0.00 0.00 0.00 0.00 0.00 0.00 0.00 0.00 0.00
0.00 0.00 0.00 0.00 0.00 0.00 0.00 0.00 0.00 0.00 0.00 0.00 0.02 0.04 0.05 0.04 0.04 0.04 0.03 0.03 0.02 0.02 0.02 0.01 0.00 0.00 0.00 0.00 0.00 0.00 0.00 0.00 0.00 0.00 0.00 0.00 0.00 0.00 0.00 0.00 0.00 0.00 0.00 0.00 0.00 0.00 0.00 0.00 0.00 0.00 0.00 0.00 0.00 0.00 0.00 0.00 0.00 0.00 0.00 0.00 0.00 0.00 0.00 0.00 0.00 0.00 0.00 0.00 0.00
0.01 0.01 0.00 0.00 0.00 0.00 0.00 0.00 0.00 0.00 0.00 0.00 0.01 0.02 0.03 0.03 0.02 0.02 0.02 0.02 0.02 0.03 0.03 0.00 0.00 0.00 0.00 0.00 0.00 0.00 0.00 0.00 0.00 0.00 0.00 0.00 0.00 0.00 0.00 0.00 0.00 0.00 0.00 0.00 0.00 0.00 0.00 0.00 0.00 0.00 0.00 0.00 0.00 0.00 0.00 0.00 0.00 0.00 0.00 0.00 0.00 0.00 0.00 0.00 0.00 0.00 0.00 0.00 0.00
0.01 0.01 0.01 0.00 0.00 0.00 0.00 0.00 0.00 0.00 0.00 0.00 0.00 0.00 0.00 0.00 0.00 0.01 0.00 0.00 0.01 0.01 0.01 0.01 0.01 0.01 0.01 0.00 0.00 0.00 0.00 0.00 0.00 0.00 0.00 0.00 0.00 0.00 0.00 0.00 0.00 0.00 0.00 0.00 0.00 0.00 0.00 0.00 0.00 0.00 0.00 0.00 0.00 0.00 0.00 0.00 0.00 0.00 0.00 0.00 0.00 0.00 0.00 0.00 0.00 0.00 0.00 0.00 0.00
0.01 0.01 0.01 0.00 0.00 0.00 0.00 0.00 0.00 0.00 0.00 0.00 0.00 0.00 0.00 0.00 0.00 0.00 0.00 0.00 0.00 0.00 0.00 0.01 0.01 0.01 0.00 0.00 0.00 0.00 0.00 0.00 0.00 0.00 0.00 0.00 0.00 0.00 0.00 0.00 0.00 0.00 0.00 0.00 0.00 0.00 0.00 0.00 0.00 0.00 0.00 0.00 0.00 0.00 0.00 0.00 0.00 0.00 0.00 0.00 0.00 0.00 0.00 0.00 0.00 0.00 0.00 0.00 0.00
0.00 0.00 0.01 0.01 0.00 0.00 0.00 0.00 0.00 0.00 0.00 0.00 0.00 0.00 0.00 0.00 0.00 0.00 0.00 0.00 0.00 0.00 0.00 0.00 0.00 0.00 0.00 0.00 0.00 0.00 0.00 0.00 0.00 0.00 0.00 0.00 0.00 0.00 0.00 0.00 0.00 0.00 0.00 0.00 0.00 0.00 0.00 0.00 0.00 0.00 0.00 0.00 0.00 0.00 0.00 0.00 0.00 0.00 0.00 0.00 0.00 0.00 0.00 0.00 0.00 0.00 0.00 0.00 0.00
0.00 0.00 0.00 0.00 0.01 0.01 0.00 0.00 0.00 0.00 0.00 0.00 0.00 0.00 0.00 0.00 0.00 0.00 0.00 0.00 0.00 0.00 0.00 0.00 0.00 0.00 0.00 0.00 0.00 0.00 0.00 0.00 0.00 0.00 0.00 0.00 0.00 0.00 0.00 0.00 0.00 0.00 0.00 0.00 0.00 0.00 0.00 0.00 0.00 0.00 0.00 0.00 0.00 0.00 0.00 0.00 0.00 0.00 0.00 0.00 0.00 0.00 0.00 0.00 0.00 0.00 0.00 0.00 0.00
0.00 0.00 0.00 0.00 0.00 0.00 0.00 0.00 0.00 0.00 0.00 0.00 0.00 0.00 0.00 0.00 0.00 0.00 0.00 0.00 0.00 0.00 0.00 0.00 0.00 0.00 0.00 0.00 0.00 0.00 0.00 0.00 0.00 0.00 0.00 0.00 0.00 0.00 0.00 0.00 0.00 0.00 0.00 0.00 0.00 0.00 0.00 0.00 0.00 0.00 0.00 0.00 0.00 0.00 0.00 0.00 0.00 0.00 0.00 0.00 0.00 0.00 0.00 0.00 0.00 0.00 0.00 0.00 0.00
0.00 0.00 0.00 0.00 0.00 0.00 0.00 0.00 0.00 0.00 0.00 0.00 0.00 0.00 0.00 0.00 0.00 0.00 0.00 0.00 0.00 0.00 0.00 0.00 0.00 0.00 0.00 0.00 0.00 0.00 0.00 0.00 0.00 0.00 0.00 0.00 0.00 0.00 0.00 0.00 0.00 0.00 0.00 0.00 0.00 0.00 0.00 0.00 0.00 0.00 0.00 0.00 0.00 0.00 0.00 0.00 0.00 0.00 0.00 0.00 0.00 0.00 0.00 0.00 0.00 0.00 0.00 0.00 0.00
0.00 0.00 0.00 0.00 0.00 0.00 0.00 0.00 0.00 0.00 0.00 0.00 0.00 0.00 0.00 0.00 0.00 0.00 0.00 0.00 0.00 0.00 0.00 0.00 0.00 0.00 0.00 0.00 0.00 0.00 0.00 0.00 0.00 0.00 0.00 0.00 0.00 0.00 0.00 0.00 0.00 0.00 0.00 0.00 0.00 0.00 0.00 0.00 0.00 0.00 0.00 0.00 0.00 0.00 0.00 0.00 0.00 0.00 0.00 0.00 0.00 0.00 0.00 0.00 0.00 0.00 0.00 0.00 0.00
0.00 0.00 0.00 0.00 0.00 0.00 0.00 0.00 0.00 0.00 0.00 0.00 0.00 0.00 0.00 0.00 0.00 0.00 0.00 0.00 0.00 0.00 0.00 0.00 0.00 0.00 0.00 0.00 0.00 0.00 0.00 0.00 0.00 0.00 0.00 0.00 0.00 0.00 0.00 0.00 0.00 0.00 0.00 0.00 0.00 0.00 0.00 0.00 0.00 0.00 0.00 0.00 0.00 0.00 0.00 0.00 0.00 0.00 0.00 0.00 0.00 0.00 0.00 0.00 0.00 0.00 0.00 0.01 0.00
0.00 0.00 0.00 0.00 0.00 0.00 0.00 0.00 0.00 0.00 0.00 0.00 0.00 0.00 0.00 0.00 0.00 0.00 0.00 0.00 0.00 0.00 0.00 0.00 0.00 0.00 0.00 0.00 0.00 0.00 0.00 0.00 0.00 0.00 0.00 0.00 0.00 0.00 0.00 0.00 0.00 0.00 0.00 0.00 0.00 0.00 0.00 0.00 0.00 0.00 0.00 0.00 0.00 0.00 0.00 0.00 0.00 0.00 0.00 0.00 0.00 0.00 0.00 0.00 0.00 0.01 0.00 0.00 0.01
0.00 0.00 0.00 0.00 0.00 0.00 0.00 0.00 0.00 0.00 0.00 0.00 0.00 0.00 0.00 0.00 0.00 0.00 0.00 0.00 0.00 0.00 0.00 0.00 0.00 0.00 0.00 0.00 0.00 0.00 0.00 0.00 0.00 0.00 0.00 0.00 0.00 0.00 0.00 0.00 0.00 0.00 0.00 0.00 0.00 0.00 0.00 0.00 0.00 0.00 0.00 0.00 0.00 0.00 0.00 0.00 0.00 0.00 0.00 0.00 0.00 0.00 0.00 0.00 0.00 0.00 0.00 0.00 0.00
0.00 0.00 0.00 0.00 0.00 0.00 0.00 0.00 0.00 0.00 0.00 0.00 0.00 0.00 0.00 0.00 0.00 0.00 0.00 0.00 0.00 0.00 0.00 0.00 0.00 0.00 0.00 0.00 0.00 0.00 0.00 0.00 0.00 0.00 0.00 0.00 0.00 0.00 0.00 0.00 0.00 0.00 0.00 0.00 0.00 0.00 0.00 0.00 0.00 0.00 0.00 0.00 0.00 0.00 0.00 0.00 0.00 0.00 0.00 0.00 0.00 0.00 0.00 0.00 0.00 0.00 0.00 0.00 0.00
0.00 0.00 0.00 0.00 0.00 0.00 0.00 0.00 0.00 0.00 0.00 0.00 0.00 0.00 0.00 0.00 0.00 0.00 0.00 0.00 0.00 0.00 0.00 0.00 0.00 0.00 0.00 0.00 0.00 0.00 0.00 0.00 0.00 0.00 0.00 0.00 0.00 0.00 0.00 0.00 0.00 0.00 0.00 0.00 0.00 0.00 0.00 0.00 0.00 0.00 0.00 0.00 0.00 0.00 0.00 0.00 0.00 0.00 0.00 0.00 0.00 0.00 0.00 0.00 0.00 0.00 0.00 0.00 0.00
0.00 0.00 0.00 0.00 0.00 0.00 0.00 0.00 0.00 0.00 0.00 0.00 0.00 0.00 0.00 0.00 0.00 0.00 0.00 0.00 0.00 0.00 0.00 0.00 0.00 0.00 0.00 0.00 0.00 0.00 0.00 0.00 0.00 0.00 0.00 0.00 0.00 0.00 0.00 0.00 0.00 0.00 0.00 0.00 0.00 0.00 0.00 0.00 0.00 0.00 0.00 0.00 0.00 0.00 0.00 0.00 0.00 0.00 0.00 0.00 0.00 0.00 0.00 0.00 0.00 0.00 0.00 0.00 0.00
0.00 0.00 0.00 0.00 0.00 0.00 0.00 0.00 0.00 0.00 0.00 0.00 0.00 0.00 0.00 0.00 0.00 0.00 0.00 0.00 0.00 0.00 0.00 0.00 0.00 0.00 0.00 0.00 0.00 0.00 0.00 0.00 0.00 0.00 0.00 0.00 0.00 0.00 0.00 0.00 0.00 0.00 0.00 0.00 0.00 0.00 0.00 0.00 0.00 0.00 0.00 0.00 0.00 0.00 0.00 0.00 0.00 0.00 0.00 0.01 0.01 0.01 0.01 0.01 0.01 0.01 0.01 0.01 0.01
0.00 0.00 0.00 0.00 0.00 0.00 0.00 0.00 0.00 0.00 0.00 0.00 0.00 0.00 0.00 0.00 0.00 0.00 0.00 0.00 0.00 0.00 0.00 0.00 0.00 0.00 0.00 0.00 0.00 0.00 0.00 0.00 0.00 0.00 0.00 0.00 0.00 0.00 0.00 0.00 0.00 0.00 0.00 0.00 0.00 0.00 0.00 0.00 0.00 0.00 0.00 0.00 0.00 0.00 0.00 0.00 0.00 0.00 0.01 0.01 0.01 0.01 0.01 0.01 0.01 0.01 0.01 0.01 0.01
0.00 0.00 0.00 0.00 0.00 0.00 0.00 0.00 0.00 0.00 0.00 0.00 0.00 0.00 0.00 0.00 0.00 0.00 0.00 0.00 0.00 0.00 0.00 0.00 0.00 0.00 0.00 0.00 0.00 0.00 0.00 0.00 0.00 0.00 0.00 0.00 0.00 0.00 0.00 0.00 0.00 0.00 0.00 0.00 0.00 0.00 0.00 0.00 0.00 0.00 0.00 0.00 0.00 0.00 0.00 0.00 0.01 0.01 0.01 0.01 0.01 0.01 0.01 0.01 0.01 0.01 0.01 0.01 0.01
0.00 0.00 0.00 0.00 0.00 0.00 0.00 0.00 0.00 0.00 0.00 0.00 0.00 0.00 0.00 0.00 0.00 0.00 0.00 0.00 0.00 0.00 0.00 0.00 0.00 0.00 0.00 0.00 0.00 0.00 0.00 0.00 0.00 0.00 0.00 0.00 0.00 0.00 0.00 0.00 0.00 0.00 0.00 0.00 0.00 0.00 0.00 0.00 0.00 0.00 0.00 0.00 0.00 0.00 0.00 0.00 0.00 0.00 0.01 0.01 0.01 0.01 0.01 0.01 0.01 0.01 0.01 0.01 0.01
0.00 0.00 0.00 0.00 0.00 0.00 0.00 0.00 0.00 0.00 0.00 0.00 0.00 0.00 0.00 0.00 0.00 0.00 0.00 0.00 0.00 0.00 0.00 0.00 0.00 0.00 0.00 0.00 0.00 0.00 0.00 0.00 0.00 0.00 0.00 0.00 0.00 0.00 0.00 0.00 0.00 0.00 0.00 0.00 0.00 0.00 0.00 0.00 0.00 0.00 0.00 0.01 0.01 0.01 0.01 0.01 0.00 0.01 0.01 0.01 0.01 0.01 0.01 0.01 0.01 0.01 0.01 0.01 0.01
0.00 0.00 0.00 0.00 0.00 0.00 0.00 0.00 0.00 0.00 0.00 0.00 0.00 0.00 0.00 0.00 0.00 0.00 0.00 0.00 0.00 0.00 0.00 0.00 0.00 0.00 0.00 0.00 0.00 0.00 0.00 0.00 0.00 0.00 0.00 0.00 0.00 0.00 0.00 0.00 0.00 0.00 0.00 0.00 0.00 0.00 0.00 0.00 0.00 0.00 0.00 0.00 0.00 0.01 0.01 0.01 0.01 0.01 0.01 0.01 0.01 0.01 0.01 0.01 0.01 0.01 0.01 0.01 0.01
0.00 0.00 0.00 0.00 0.00 0.00 0.00 0.00 0.00 0.00 0.00 0.00 0.00 0.00 0.00 0.00 0.00 0.00 0.00 0.00 0.00 0.00 0.00 0.00 0.00 0.00 0.00 0.00 0.00 0.00 0.00 0.00 0.00 0.00 0.00 0.00 0.00 0.00 0.00 0.00 0.00 0.00 0.00 0.00 0.01 0.01 0.01 0.01 0.01 0.01 0.00 0.00 0.00 0.01 0.01 0.01 0.01 0.01 0.01 0.01 0.01 0.01 0.01 0.01 0.01 0.01 0.01 0.01 0.01
0.00 0.00 0.00 0.00 0.00 0.00 0.00 0.00 0.00 0.00 0.00 0.00 0.00 0.00 0.00 0.00 0.00 0.00 0.00 0.00 0.00 0.00 0.00 0.00 0.00 0.00 0.00 0.00 0.00 0.00 0.00 0.00 0.00 0.00 0.00 0.00 0.00 0.00 0.00 0.00 0.00 0.00 0.00 0.00 0.01 0.01 0.01 0.01 0.01 0.01 0.01 0.00 0.00 0.01 0.01 0.01 0.01 0.01 0.01 0.01 0.01 0.01 0.01 0.01 0.01 0.01 0.01 0.01 0.01
0.00 0.00 0.00 0.00 0.00 0.00 0.00 0.00 0.00 0.00 0.00 0.00 0.00 0.00 0.00 0.00 0.00 0.00 0.00 0.00 0.00 0.00 0.00 0.00 0.00 0.00 0.00 0.00 0.00 0.00 0.00 0.00 0.00 0.00 0.00 0.00 0.00 0.00 0.00 0.00 0.00 0.00 0.00 0.00 0.01 0.01 0.01 0.01 0.01 0.00 0.00 0.00 0.00 0.00 0.01 0.01 0.01 0.01 0.01 0.01 0.01 0.01 0.01 0.01 0.01 0.01 0.01 0.01 0.01
0.00 0.00 0.00 0.00 0.00 0.00 0.00 0.00 0.00 0.00 0.00 0.00 0.00 0.00 0.00 0.00 0.00 0.00 0.00 0.00 0.00 0.00 0.00 0.00 0.00 0.00 0.00 0.00 0.00 0.00 0.00 0.00 0.00 0.00 0.00 0.00 0.00 0.00 0.00 0.00 0.00 0.01 0.01 0.01 0.01 0.01 0.01 0.01 0.01 0.00 0.00 0.01 0.00 0.00 0.00 0.01 0.01 0.01 0.01 0.01 0.01 0.01 0.01 0.01 0.01 0.01 0.02 0.02 0.02
0.00 0.00 0.00 0.00 0.00 0.00 0.00 0.00 0.00 0.00 0.00 0.00 0.00 0.00 0.00 0.00 0.00 0.00 0.00 0.00 0.00 0.00 0.00 0.00 0.00 0.00 0.00 0.00 0.00 0.00 0.00 0.00 0.00 0.00 0.00 0.00 0.00 0.00 0.00 0.00 0.00 0.01 0.01 0.01 0.01 0.01 0.01 0.01 0.01 0.01 0.01 0.00 0.01 0.01 0.00 0.00 0.00 0.01 0.01 0.01 0.01 0.01 0.01 0.01 0.01 0.02 0.02 0.02 0.02
0.00 0.00 0.00 0.00 0.00 0.00 0.00 0.00 0.00 0.00 0.00 0.00 0.00 0.00 0.00 0.00 0.00 0.00 0.00 0.00 0.00 0.00 0.00 0.00 0.00 0.00 0.00 0.00 0.00 0.00 0.00 0.00 0.00 0.00 0.00 0.00 0.00 0.00 0.00 0.00 0.00 0.01 0.01 0.01 0.01 0.01 0.01 0.01 0.01 0.01 0.01 0.00 0.00 0.00 0.01 0.00 0.00 0.00 0.00 0.01 0.01 0.01 0.01 0.01 0.01 0.01 0.01 0.02 0.02
0.00 0.00 0.00 0.00 0.00 0.00 0.00 0.00 0.00 0.00 0.00 0.00 0.00 0.00 0.00 0.00 0.00 0.00 0.00 0.00 0.00 0.00 0.00 0.00 0.00 0.00 0.00 0.00 0.00 0.00 0.00 0.00 0.00 0.00 0.00 0.00 0.00 0.00 0.00 0.00 0.00 0.00 0.01 0.01 0.01 0.01 0.01 0.01 0.01 0.01 0.01 0.00 0.00 0.00 0.00 0.01 0.00 0.00 0.01 0.00 0.00 0.01 0.01 0.01 0.01 0.01 0.01 0.01 0.01
0.00 0.00 0.00 0.00 0.00 0.00 0.00 0.00 0.00 0.00 0.00 0.00 0.00 0.00 0.00 0.00 0.00 0.00 0.00 0.00 0.00 0.00 0.00 0.00 0.00 0.00 0.00 0.00 0.00 0.00 0.00 0.00 0.00 0.00 0.00 0.00 0.00 0.00 0.00 0.00 0.00 0.00 0.01 0.01 0.01 0.01 0.01 0.01 0.01 0.01 0.01 0.01 0.00 0.00 0.00 0.00 0.00 0.00 0.00 0.00 0.00 0.00 0.00 0.01 0.01 0.01 0.01 0.01 0.01
0.00 0.00 0.00 0.00 0.00 0.00 0.00 0.00 0.00 0.00 0.00 0.00 0.00 0.00 0.00 0.00 0.00 0.00 0.00 0.00 0.00 0.00 0.00 0.00 0.00 0.00 0.00 0.00 0.00 0.00 0.00 0.00 0.00 0.01 0.01 0.01 0.01 0.01 0.00 0.00 0.00 0.00 0.01 0.01 0.01 0.01 0.01 0.01 0.01 0.01 0.01 0.01 0.01 0.01 0.01 0.01 0.01 0.01 0.01 0.01 0.00 0.00 0.00 0.00 0.00 0.00 0.01 0.01 0.00
0.00 0.00 0.00 0.00 0.00 0.00 0.00 0.00 0.00 0.00 0.00 0.00 0.00 0.00 0.00 0.00 0.00 0.00 0.00 0.00 0.00 0.00 0.00 0.00 0.00 0.00 0.00 0.00 0.00 0.00 0.00 0.00 0.00 0.01 0.01 0.01 0.01 0.01 0.01 0.01 0.01 0.00 0.01 0.01 0.01 0.01 0.01 0.01 0.01 0.01 0.01 0.01 0.01 0.01 0.01 0.01 0.01 0.01 0.01 0.01 0.00 0.00 0.00 0.00 0.00 0.00 0.00 0.00 0.00
0.00 0.00 0.00 0.00 0.00 0.00 0.00 0.00 0.00 0.00 0.00 0.00 0.00 0.00 0.00 0.00 0.00 0.00 0.00 0.00 0.00 0.00 0.00 0.00 0.00 0.00 0.00 0.00 0.00 0.00 0.00 0.00 0.00 0.01 0.01 0.01 0.01 0.01 0.01 0.01 0.01 0.00 0.01 0.01 0.01 0.01 0.01 0.01 0.01 0.01 0.01 0.01 0.01 0.01 0.01 0.01 0.01 0.01 0.01 0.01 0.00 0.00 0.00 0.00 0.00 0.00 0.00 0.00 0.00
0.00 0.00 0.00 0.00 0.00 0.00 0.00 0.00 0.00 0.00 0.00 0.00 0.00 0.00 0.00 0.00 0.00 0.00 0.00 0.00 0.00 0.00 0.00 0.00 0.00 0.00 0.00 0.01 0.00 0.00 0.00 0.00 0.00 0.01 0.01 0.01 0.01 0.01 0.01 0.01 0.01 0.01 0.01 0.01 0.01 0.01 0.01 0.01 0.01 0.01 0.01 0.01 0.01 0.01 0.01 0.01 0.01 0.01 0.01 0.01 0.00 0.00 0.00 0.00 0.00 0.00 0.00 0.00 0.00
0.00 0.00 0.00 0.00 0.00 0.00 0.00 0.00 0.00 0.00 0.00 0.00 0.00 0.00 0.00 0.00 0.00 0.00 0.00 0.00 0.00 0.00 0.00 0.00 0.00 0.00 0.00 0.00 0.00 0.00 0.00 0.00 0.01 0.01 0.01 0.01 0.01 0.01 0.01 0.01 0.01 0.01 0.01 0.01 0.01 0.01 0.01 0.01 0.01 0.00 0.00 0.01 0.01 0.01 0.01 0.01 0.01 0.01 0.01 0.00 0.00 0.00 0.00 0.00 0.00 0.00 0.00 0.00 0.00
0.00 0.00 0.00 0.00 0.00 0.00 0.00 0.00 0.00 0.00 0.00 0.00 0.00 0.00 0.00 0.00 0.00 0.00 0.00 0.00 0.00 0.00 0.00 0.00 0.00 0.00 0.00 0.00 0.00 0.00 0.00 0.00 0.00 0.00 0.01 0.01 0.01 0.01 0.01 0.01 0.00 0.01 0.01 0.01 0.01 0.01 0.01 0.01 0.01 0.00 0.00 0.01 0.01 0.01 0.01 0.01 0.01 0.01 0.00 0.00 0.00 0.00 0.00 0.00 0.00 0.00 0.00 0.00 0.00
0.00 0.00 0.00 0.00 0.00 0.00 0.00 0.00 0.00 0.00 0.00 0.00 0.00 0.00 0.00 0.00 0.00 0.00 0.00 0.00 0.00 0.00 0.00 0.00 0.00 0.00 0.00 0.00 0.00 0.00 0.00 0.00 0.00 0.00 0.00 0.01 0.01 0.01 0.01 0.01 0.01 0.01 0.01 0.01 0.01 0.01 0.01 0.01 0.00 0.00 0.00 0.01 0.01 0.01 0.01 0.00 0.00 0.00 0.00 0.00 0.00 0.00 0.00 0.00 0.00 0.00 0.00 0.00 0.00
0.00 0.00 0.00 0.00 0.00 0.00 0.00 0.00 0.00 0.00 0.00 0.00 0.00 0.00 0.00 0.00 0.00 0.00 0.00 0.00 0.00 0.00 0.00 0.00 0.00 0.00 0.00 0.00 0.00 0.00 0.00 0.00 0.00 0.00 0.00 0.00 0.01 0.01 0.01 0.01 0.01 0.01 0.00 0.00 0.00 0.00 0.01 0.00 0.00 0.00 0.00 0.00 0.00 0.00 0.00 0.00 0.00 0.00 0.00 0.00 0.00 0.00 0.00 0.00 0.00 0.00 0.00 0.00 0.00
0.00 0.00 0.00 0.00 0.00 0.00 0.00 0.00 0.00 0.00 0.00 0.00 0.00 0.00 0.00 0.00 0.00 0.00 0.00 0.00 0.00 0.00 0.00 0.00 0.00 0.00 0.00 0.00 0.00 0.01 0.01 0.00 0.00 0.00 0.00 0.00 0.01 0.01 0.01 0.01 0.01 0.00 0.00 0.00 0.00 0.00 0.00 0.00 0.00 0.00 0.00 0.00 0.00 0.00 0.00 0.00 0.00 0.00 0.00 0.00 0.00 0.00 0.00 0.00 0.00 0.00 0.00 0.00 0.00
0.00 0.00 0.00 0.00 0.00 0.00 0.00 0.00 0.00 0.00 0.00 0.00 0.00 0.00 0.00 0.00 0.00 0.00 0.00 0.00 0.00 0.00 0.00 0.00 0.00 0.00 0.00 0.00 0.00 0.00 0.00 0.00 0.00 0.00 0.00 0.00 0.00 0.01 0.01 0.01 0.01 0.00 0.00 0.00 0.00 0.00 0.00 0.00 0.00 0.00 0.00 0.00 0.00 0.00 0.00 0.00 0.00 0.00 0.00 0.00 0.00 0.00 0.00 0.00 0.00 0.00 0.00 0.00 0.00
MSLP
1016.77 1016.85 1016.93 1017.01 1017.05 1017.09 1017.17 1017.17 1017.17 1017.25 1017.37 1017.49 1017.61 1017.77 1017.97 1018.17 1018.33 1018.37 1018.37 1018.41 1018.25 1018.05 1017.85 1017.77 1017.73 1017.77 1017.77 1017.77 1017.77 1017.81 1017.89 1017.89 1017.89 1017.89 1017.93 1017.97 1018.05 1018.13 1018.17 1018.21 1018.25 1018.33 1018.33 1018.37 1018.41 1018.45 1018.45 1018.49 1018.57 1018.61 1018.65 1018.69 1018.77 1018.77 1018.77 1018.73 1018.77 1018.77 1018.77 1018.77 1018.77 1018.77 1018.73 1018.73 1018.77 1018.81 1018.89 1019.01 1019.05
1016.77 1016.85 1016.89 1016.97 1017.01 1017.05 1017.13 1017.17 1017.21 1017.29 1017.33 1017.45 1017.57 1017.77 1018.09 1018.33 1018.53 1018.61 1018.61 1018.53 1018.37 1018.17 1017.93 1017.85 1017.89 1017.89 1017.89 1017.85 1017.85 1017.89 1017.97 1018.05 1018.05 1018.05 1018.05 1018.13 1018.17 1018.21 1018.25 1018.33 1018.33 1018.37 1018.41 1018.45 1018.45 1018.49 1018.53 1018.57 1018.61 1018.61 1018.69 1018.73 1018.77 1018.81 1018.77 1018.77 1018.77 1018.81 1018.85 1018.85 1018.81 1018.77 1018.77 1018.77 1018.77 1018.73 1018.73 1018.77 1018.81
1016.69 1016.77 1016.81 1016.89 1016.89 1017.01 1017.09 1017.17 1017.25 1017.33 1017.41 1017.49 1017.65 1017.93 1018.25 1018.45 1018.61 1018.69 1018.65 1018.61 1018.41 1018.21 1018.09 1018.05 1018.05 1018.05 1018.05 1018.01 1018.01 1018.05 1018.09 1018.17 1018.21 1018.29 1018.33 1018.37 1018.41 1018.41 1018.41 1018.45 1018.45 1018.45 1018.45 1018.49 1018.53 1018.53 1018.57 1018.61 1018.61 1018.61 1018.69 1018.77 1018.81 1018.85 1018.85 1018.77 1018.77 1018.85 1018.89 1018.89 1018.81 1018.77 1018.81 1018.81 1018.77 1018.73 1018.69 1018.73 1018.73
1016.61 1016.65 1016.73 1016.81 1016.89 1016.97 1017.05 1017.17 1017.25 1017.37 1017.49 1017.61 1017.77 1018.05 1018.25 1018.37 1018.45 1018.45 1018.45 1018.33 1018.25 1018.17 1018.17 1018.17 1018.17 1018.17 1018.17 1018.13 1018.17 1018.17 1018.25 1018.33 1018.41 1018.45 1018.49 1018.53 1018.53 1018.53 1018.53 1018.53 1018.57 1018.61 1018.61 1018.61 1018.61 1018.61 1018.61 1018.61 1018.61 1018.65 1018.69 1018.77 1018.77 1018.81 1018.81 1018.77 1018.77 1018.81 1018.81 1018.81 1018.77 1018.77 1018.77 1018.77 1018.73 1018.69 1018.73 1018.73 1018.65
1016.57 1016.69 1016.77 1016.81 1016.93 1017.05 1017.13 1017.21 1017.33 1017.49 1017.57 1017.65 1017.73 1017.81 1017.93 1018.01 1018.05 1018.05 1018.05 1018.01 1018.05 1018.05 1018.13 1018.21 1018.33 1018.29 1018.21 1018.17 1018.25 1018.33 1018.41 1018.45 1018.53 1018.61 1018.65 1018.61 1018.61 1018.61 1018.61 1018.61 1018.65 1018.69 1018.65 1018.65 1018.65 1018.65 1018.65 1018.65 1018.65 1018.69 1018.73 1018.73 1018.77 1018.77 1018.77 1018.77 1018.77 1018.77 1018.77 1018.73 1018.69 1018.73 1018.73 1018.73 1018.69 1018.69 1018.65 1018.65 1018.61
1016.65 1016.77 1016.81 1016.93 1017.05 1017.17 1017.25 1017.33 1017.45 1017.49 1017.57 1017.61 1017.69 1017.77 1017.81 1017.89 1017.85 1017.89 1017.97 1018.05 1018.17 1018.21 1018.25 1018.33 1018.33 1018.29 1018.21 1018.29 1018.33 1018.45 1018.49 1018.61 1018.65 1018.73 1018.77 1018.77 1018.77 1018.77 1018.77 1018.81 1018.81 1018.81 1018.77 1018.77 1018.77 1018.77 1018.77 1018.77 1018.77 1018.77 1018.77 1018.77 1018.77 1018.73 1018.73 1018.77 1018.77 1018.77 1018.77 1018.77 1018.65 1018.61 1018.65 1018.61 1018.61 1018.57 1018.57 1018.57 1018.61
1016.69 1016.81 1016.93 1017.05 1017.17 1017.29 1017.37 1017.45 1017.49 1017.53 1017.57 1017.61 1017.69 1017.81 1017.89 1017.93 1017.97 1018.05 1018.09 1018.17 1018.25 1018.33 1018.33 1018.33 1018.33 1018.37 1018.37 1018.41 1018.49 1018.61 1018.69 1018.77 1018.81 1018.89 1018.89 1018.97 1018.97 1018.93 1018.89 1018.89 1018.89 1018.89 1018.89 1018.89 1018.89 1018.89 1018.89 1018.89 1018.85 1018.85 1018.81 1018.81 1018.81 1018.77 1018.73 1018.77 1018.73 1018.77 1018.77 1018.69 1018.61 1018.57 1018.53 1018.53 1018.45 1018.45 1018.49 1018.49 1018.49
1016.77 1016.85 1016.97 1017.13 1017.33 1017.49 1017.49 1017.49 1017.53 1017.61 1017.65 1017.73 1017.81 1017.89 1017.97 1018.05 1018.09 1018.17 1018.17 1018.25 1018.33 1018.37 1018.41 1018.45 1018.45 1018.49 1018.57 1018.61 1018.73 1018.81 1018.89 1018.97 1019.05 1019.05 1019.05 1019.05 1019.05 1019.01 1018.97 1018.97 1018.93 1018.93 1018.89 1018.89 1018.89 1018.93 1018.93 1018.93 1018.93 1018.93 1018.97 1018.93 1018.89 1018.85 1018.77 1018.77 1018.77 1018.77 1018.77 1018.65 1018.57 1018.45 1018.45 1018.45 1018.41 1018.41 1018.41 1018.37 1018.41
1016.89 1016.97 1017.05 1017.21 1017.33 1017.49 1017.53 1017.57 1017.61 1017.73 1017.81 1017.89 1017.93 1018.05 1018.05 1018.13 1018.17 1018.21 1018.33 1018.37 1018.45 1018.45 1018.49 1018.57 1018.65 1018.69 1018.77 1018.85 1018.93 1019.05 1019.13 1019.17 1019.17 1019.17 1019.17 1019.13 1019.09 1019.05 1019.05 1019.05 1019.01 1019.01 1019.01 1018.97 1018.97 1018.97 1018.97 1019.01 1019.01 1019.01 1019.01 1019.01 1018.93 1018.89 1018.85 1018.85 1018.81 1018.77 1018.73 1018.61 1018.53 1018.45 1018.45 1018.41 1018.41 1018.37 1018.37 1018.33 1018.33
1017.01 1017.09 1017.17 1017.33 1017.45 1017.49 1017.61 1017.65 1017.73 1017.77 1017.89 1018.01 1018.05 1018.13 1018.17 1018.21 1018.29 1018.37 1018.45 1018.49 1018.53 1018.61 1018.65 1018.73 1018.77 1018.85 1018.89 1019.05 1019.13 1019.17 1019.21 1019.25 1019.25 1019.21 1019.17 1019.17 1019.17 1019.13 1019.13 1019.13 1019.09 1019.09 1019.05 1019.05 1019.05 1019.05 1019.05 1019.05 1019.05 1019.05 1019.05 1019.05 1019.01 1018.97 1018.89 1018.85 1018.85 1018.81 1018.77 1018.65 1018.57 1018.53 1018.45 1018.37 1018.33 1018.33 1018.33 1018.33 1018.33
1017.13 1017.21 1017.33 1017.45 1017.53 1017.61 1017.65 1017.77 1017.85 1017.89 1017.97 1018.05 1018.17 1018.21 1018.29 1018.33 1018.41 1018.49 1018.57 1018.61 1018.65 1018.77 1018.81 1018.89 1018.89 1018.93 1019.05 1019.13 1019.17 1019.25 1019.29 1019.29 1019.29 1019.25 1019.25 1019.21 1019.21 1019.21 1019.21 1019.21 1019.21 1019.17 1019.17 1019.13 1019.09 1019.09 1019.09 1019.09 1019.09 1019.09 1019.05 1019.01 1019.01 1018.93 1018.89 1018.85 1018.81 1018.77 1018.77 1018.69 1018.61 1018.57 1018.45 1018.33 1018.29 1018.25 1018.25 1018.25 1018.25
1017.21 1017.33 1017.45 1017.53 1017.61 1017.73 1017.77 1017.89 1017.97 1018.05 1018.09 1018.17 1018.29 1018.37 1018.45 1018.45 1018.53 1018.61 1018.61 1018.69 1018.81 1018.89 1018.93 1018.97 1019.01 1019.05 1019.13 1019.21 1019.29 1019.29 1019.29 1019.33 1019.33 1019.33 1019.33 1019.33 1019.33 1019.33 1019.33 1019.33 1019.29 1019.25 1019.21 1019.17 1019.17 1019.13 1019.13 1019.13 1019.13 1019.13 1019.09 1018.97 1018.93 1018.89 1018.89 1018.85 1018.81 1018.77 1018.73 1018.65 1018.61 1018.53 1018.41 1018.33 1018.33 1018.29 1018.29 1018.29 1018.29
1017.33 1017.41 1017.53 1017.61 1017.69 1017.77 1017.89 1017.97 1018.09 1018.17 1018.21 1018.33 1018.45 1018.45 1018.49 1018.57 1018.61 1018.65 1018.69 1018.81 1018.89 1019.01 1019.05 1019.09 1019.09 1019.17 1019.21 1019.29 1019.33 1019.33 1019.33 1019.33 1019.37 1019.37 1019.37 1019.41 1019.41 1019.41 1019.37 1019.33 1019.33 1019.29 1019.25 1019.21 1019.17 1019.13 1019.13 1019.13 1019.09 1019.09 1019.05 1018.97 1018.93 1018.89 1018.89 1018.81 1018.77 1018.73 1018.69 1018.61 1018.61 1018.49 1018.45 1018.37 1018.33 1018.33 1018.33 1018.33 1018.33
1017.41 1017.49 1017.61 1017.69 1017.77 1017.85 1017.93 1018.05 1018.17 1018.25 1018.33 1018.41 1018.45 1018.49 1018.57 1018.61 1018.69 1018.73 1018.81 1018.89 1019.01 1019.05 1019.13 1019.17 1019.21 1019.21 1019.25 1019.33 1019.33 1019.33 1019.37 1019.45 1019.45 1019.45 1019.45 1019.45 1019.45 1019.41 1019.37 1019.37 1019.33 1019.29 1019.29 1019.25 1019.17 1019.17 1019.13 1019.13 1019.09 1019.05 1019.01 1018.93 1018.89 1018.85 1018.77 1018.77 1018.69 1018.61 1018.61 1018.61 1018.53 1018.45 1018.37 1018.33 1018.33 1018.33 1018.33 1018.33 1018.33
1017.49 1017.57 1017.65 1017.73 1017.81 1017.89 1018.05 1018.13 1018.21 1018.29 1018.37 1018.45 1018.53 1018.57 1018.61 1018.69 1018.77 1018.81 1018.89 1018.97 1019.05 1019.09 1019.17 1019.25 1019.29 1019.29 1019.29 1019.29 1019.33 1019.37 1019.41 1019.41 1019.45 1019.45 1019.49 1019.49 1019.45 1019.41 1019.37 1019.37 1019.33 1019.33 1019.29 1019.29 1019.21 1019.17 1019.13 1019.09 1019.09 1019.05 1019.01 1018.89 1018.89 1018.81 1018.77 1018.73 1018.65 1018.61 1018.53 1018.45 1018.45 1018.37 1018.33 1018.29 1018.29 1018.29 1018.33 1018.33 1018.33
1017.49 1017.61 1017.69 1017.77 1017.89 1017.97 1018.09 1018.17 1018.25 1018.33 1018.41 1018.49 1018.57 1018.61 1018.69 1018.77 1018.81 1018.85 1018.89 1018.97 1019.05 1019.13 1019.17 1019.21 1019.25 1019.29 1019.25 1019.25 1019.29 1019.33 1019.33 1019.37 1019.41 1019.45 1019.49 1019.49 1019.45 1019.41 1019.37 1019.37 1019.33 1019.33 1019.29 1019.29 1019.21 1019.17 1019.13 1019.13 1019.09 1019.05 1019.01 1018.93 1018.85 1018.81 1018.77 1018.77 1018.69 1018.61 1018.53 1018.45 1018.41 1018.33 1018.29 1018.21 1018.21 1018.21 1018.25 1018.25 1018.29
1017.61 1017.69 1017.77 1017.81 1017.93 1018.05 1018.17 1018.25 1018.33 1018.37 1018.45 1018.53 1018.57 1018.61 1018.73 1018.77 1018.85 1018.89 1018.93 1019.01 1019.09 1019.17 1019.17 1019.21 1019.29 1019.29 1019.29 1019.33 1019.33 1019.33 1019.33 1019.37 1019.41 1019.45 1019.49 1019.45 1019.45 1019.41 1019.41 1019.37 1019.33 1019.33 1019.29 1019.29 1019.21 1019.17 1019.17 1019.13 1019.09 1019.05 1019.01 1018.89 1018.89 1018.81 1018.77 1018.73 1018.69 1018.61 1018.57 1018.49 1018.45 1018.37 1018.29 1018.21 1018.21 1018.17 1018.17 1018.17 1018.21
1017.69 1017.73 1017.77 1017.85 1018.01 1018.09 1018.17 1018.29 1018.33 1018.41 1018.45 1018.57 1018.61 1018.69 1018.77 1018.81 1018.85 1018.89 1018.97 1019.01 1019.05 1019.17 1019.21 1019.25 1019.29 1019.29 1019.33 1019.37 1019.41 1019.41 1019.41 1019.45 1019.49 1019.49 1019.49 1019.49 1019.49 1019.45 1019.45 1019.41 1019.33 1019.33 1019.29 1019.29 1019.21 1019.17 1019.17 1019.09 1019.09 1019.05 1019.01 1018.93 1018.89 1018.85 1018.77 1018.77 1018.69 1018.65 1018.61 1018.61 1018.53 1018.45 1018.37 1018.33 1018.29 1018.25 1018.21 1018.21 1018.21
1017.77 1017.77 1017.81 1017.93 1018.05 1018.09 1018.17 1018.25 1018.33 1018.45 1018.49 1018.57 1018.61 1018.69 1018.77 1018.77 1018.85 1018.89 1018.97 1019.05 1019.05 1019.13 1019.21 1019.29 1019.33 1019.33 1019.37 1019.45 1019.49 1019.49 1019.49 1019.49 1019.49 1019.49 1019.49 1019.49 1019.49 1019.49 1019.45 1019.41 1019.37 1019.33 1019.33 1019.25 1019.25 1019.21 1019.17 1019.13 1019.09 1019.05 1019.05 1018.97 1018.93 1018.89 1018.85 1018.81 1018.77 1018.73 1018.69 1018.61 1018.61 1018.53 1018.45 1018.45 1018.37 1018.33 1018.33 1018.33 1018.29
1017.77 1017.77 1017.89 1017.97 1018.01 1018.09 1018.17 1018.25 1018.33 1018.45 1018.49 1018.57 1018.61 1018.69 1018.77 1018.85 1018.89 1018.93 1019.01 1019.09 1019.13 1019.17 1019.25 1019.33 1019.37 1019.41 1019.45 1019.49 1019.49 1019.49 1019.49 1019.49 1019.53 1019.53 1019.53 1019.53 1019.49 1019.49 1019.49 1019.45 1019.41 1019.37 1019.33 1019.33 1019.25 1019.21 1019.17 1019.13 1019.09 1019.05 1019.05 1018.97 1018.97 1018.97 1018.89 1018.89 1018.85 1018.77 1018.77 1018.77 1018.69 1018.65 1018.61 1018.57 1018.53 1018.45 1018.45 1018.45 1018.45
1017.77 1017.81 1017.89 1017.93 1018.01 1018.09 1018.17 1018.29 1018.37 1018.45 1018.53 1018.61 1018.73 1018.77 1018.81 1018.89 1018.97 1019.05 1019.09 1019.17 1019.17 1019.25 1019.33 1019.37 1019.41 1019.45 1019.49 1019.49 1019.49 1019.49 1019.53 1019.53 1019.57 1019.57 1019.57 1019.57 1019.53 1019.53 1019.53 1019.49 1019.45 1019.41 1019.37 1019.33 1019.29 1019.21 1019.17 1019.17 1019.13 1019.09 1019.05 1019.05 1019.01 1019.01 1018.97 1018.93 1018.89 1018.89 1018.89 1018.85 1018.85 1018.81 1018.77 1018.77 1018.69 1018.65 1018.61 1018.61 1018.57
1017.81 1017.85 1017.89 1017.93 1018.05 1018.17 1018.25 1018.33 1018.45 1018.53 1018.61 1018.69 1018.77 1018.89 1018.97 1019.05 1019.13 1019.17 1019.17 1019.21 1019.21 1019.29 1019.33 1019.37 1019.45 1019.49 1019.49 1019.49 1019.53 1019.57 1019.57 1019.61 1019.61 1019.61 1019.61 1019.61 1019.61 1019.61 1019.57 1019.57 1019.53 1019.49 1019.45 1019.37 1019.33 1019.29 1019.21 1019.17 1019.17 1019.13 1019.09 1019.05 1019.05 1019.05 1019.05 1019.05 1019.01 1019.01 1019.01 1018.97 1018.97 1018.93 1018.93 1018.89 1018.89 1018.85 1018.77 1018.73 1018.69
1017.89 1017.89 1017.93 1018.01 1018.13 1018.21 1018.33 1018.45 1018.53 1018.61 1018.77 1018.85 1018.89 1019.01 1019.09 1019.17 1019.21 1019.25 1019.33 1019.33 1019.33 1019.37 1019.41 1019.49 1019.49 1019.49 1019.49 1019.53 1019.57 1019.61 1019.61 1019.65 1019.65 1019.65 1019.65 1019.65 1019.65 1019.61 1019.61 1019.61 1019.57 1019.53 1019.49 1019.41 1019.37 1019.33 1019.29 1019.21 1019.17 1019.17 1019.17 1019.13 1019.13 1019.13 1019.09 1019.09 1019.09 1019.09 1019.09 1019.09 1019.05 1019.05 1019.05 1019.05 1019.05 1018.97 1018.93 1018.89 1018.85
1017.93 1018.01 1018.05 1018.13 1018.21 1018.33 1018.45 1018.57 1018.65 1018.77 1018.89 1019.01 1019.09 1019.17 1019.21 1019.29 1019.33 1019.37 1019.45 1019.49 1019.49 1019.49 1019.53 1019.53 1019.57 1019.57 1019.57 1019.57 1019.61 1019.61 1019.65 1019.69 1019.69 1019.69 1019.69 1019.69 1019.69 1019.65 1019.61 1019.61 1019.57 1019.53 1019.49 1019.45 1019.41 1019.33 1019.33 1019.25 1019.25 1019.21 1019.17 1019.17 1019.17 1019.17 1019.17 1019.17 1019.17 1019.17 1019.21 1019.21 1019.21 1019.21 1019.21 1019.21 1019.17 1019.13 1019.09 1019.05 1019.05
1018.01 1018.09 1018.17 1018.25 1018.33 1018.45 1018.53 1018.61 1018.73 1018.85 1018.97 1019.13 1019.21 1019.29 1019.33 1019.41 1019.45 1019.49 1019.57 1019.61 1019.61 1019.61 1019.61 1019.61 1019.61 1019.61 1019.61 1019.61 1019.61 1019.61 1019.65 1019.69 1019.69 1019.73 1019.73 1019.73 1019.69 1019.65 1019.61 1019.61 1019.61 1019.57 1019.49 1019.49 1019.37 1019.33 1019.33 1019.29 1019.29 1019.25 1019.25 1019.29 1019.25 1019.25 1019.25 1019.25 1019.29 1019.33 1019.33 1019.33 1019.33 1019.33 1019.33 1019.33 1019.33 1019.29 1019.21 1019.21 1019.17
1018.09 1018.17 1018.33 1018.37 1018.45 1018.53 1018.61 1018.65 1018.73 1018.85 1019.01 1019.17 1019.33 1019.41 1019.49 1019.53 1019.57 1019.61 1019.61 1019.61 1019.61 1019.65 1019.69 1019.73 1019.73 1019.69 1019.65 1019.65 1019.65 1019.61 1019.65 1019.69 1019.69 1019.69 1019.73 1019.73 1019.69 1019.65 1019.65 1019.61 1019.57 1019.53 1019.49 1019.45 1019.33 1019.33 1019.29 1019.29 1019.29 1019.33 1019.33 1019.33 1019.33 1019.33 1019.33 1019.33 1019.33 1019.37 1019.37 1019.37 1019.37 1019.41 1019.41 1019.45 1019.45 1019.45 1019.37 1019.33 1019.29
1018.17 1018.33 1018.41 1018.41 1018.49 1018.57 1018.61 1018.65 1018.69 1018.85 1019.05 1019.21 1019.37 1019.49 1019.53 1019.61 1019.61 1019.61 1019.65 1019.65 1019.61 1019.65 1019.69 1019.77 1019.77 1019.77 1019.73 1019.69 1019.69 1019.65 1019.69 1019.69 1019.65 1019.65 1019.69 1019.69 1019.69 1019.69 1019.61 1019.61 1019.57 1019.53 1019.49 1019.41 1019.33 1019.29 1019.25 1019.25 1019.29 1019.33 1019.37 1019.37 1019.37 1019.37 1019.37 1019.37 1019.41 1019.45 1019.49 1019.49 1019.49 1019.49 1019.49 1019.53 1019.53 1019.49 1019.49 1019.49 1019.45
1018.29 1018.33 1018.37 1018.41 1018.49 1018.53 1018.61 1018.65 1018.77 1018.89 1019.05 1019.21 1019.33 1019.41 1019.49 1019.57 1019.57 1019.61 1019.61 1019.61 1019.61 1019.65 1019.69 1019.77 1019.77 1019.77 1019.73 1019.73 1019.69 1019.65 1019.61 1019.61 1019.61 1019.61 1019.61 1019.61 1019.61 1019.61 1019.61 1019.61 1019.57 1019.53 1019.49 1019.41 1019.33 1019.25 1019.25 1019.29 1019.33 1019.33 1019.41 1019.45 1019.49 1019.49 1019.45 1019.45 1019.49 1019.49 1019.53 1019.53 1019.57 1019.57 1019.61 1019.61 1019.61 1019.61 1019.61 1019.61 1019.61
1018.21 1018.29 1018.33 1018.45 1018.53 1018.61 1018.65 1018.73 1018.85 1018.93 1019.05 1019.21 1019.33 1019.37 1019.45 1019.53 1019.53 1019.57 1019.57 1019.61 1019.61 1019.65 1019.69 1019.73 1019.73 1019.77 1019.73 1019.73 1019.69 1019.65 1019.61 1019.61 1019.57 1019.57 1019.61 1019.61 1019.61 1019.61 1019.57 1019.57 1019.57 1019.49 1019.45 1019.37 1019.33 1019.29 1019.25 1019.25 1019.33 1019.37 1019.41 1019.49 1019.53 1019.57 1019.53 1019.49 1019.53 1019.57 1019.61 1019.61 1019.61 1019.65 1019.69 1019.65 1019.65 1019.69 1019.73 1019.69 1019.69
1018.17 1018.29 1018.41 1018.49 1018.61 1018.65 1018.73 1018.81 1018.89 1018.93 1019.05 1019.17 1019.29 1019.33 1019.41 1019.45 1019.49 1019.49 1019.53 1019.57 1019.61 1019.61 1019.65 1019.65 1019.69 1019.73 1019.73 1019.73 1019.73 1019.69 1019.65 1019.65 1019.61 1019.57 1019.61 1019.61 1019.61 1019.61 1019.61 1019.61 1019.57 1019.53 1019.49 1019.41 1019.33 1019.33 1019.33 1019.33 1019.37 1019.41 1019.45 1019.49 1019.57 1019.61 1019.61 1019.61 1019.61 1019.61 1019.65 1019.65 1019.65 1019.73 1019.77 1019.77 1019.73 1019.77 1019.81 1019.81 1019.81
1018.17 1018.29 1018.41 1018.57 1018.65 1018.73 1018.77 1018.89 1018.89 1018.97 1019.05 1019.17 1019.21 1019.33 1019.37 1019.41 1019.45 1019.49 1019.49 1019.53 1019.57 1019.61 1019.61 1019.69 1019.69 1019.73 1019.73 1019.73 1019.69 1019.69 1019.65 1019.65 1019.61 1019.61 1019.61 1019.61 1019.61 1019.61 1019.61 1019.61 1019.61 1019.57 1019.49 1019.45 1019.41 1019.41 1019.41 1019.45 1019.45 1019.49 1019.49 1019.57 1019.61 1019.65 1019.69 1019.69 1019.69 1019.69 1019.69 1019.73 1019.73 1019.77 1019.77 1019.81 1019.81 1019.85 1019.89 1019.89 1019.89
1018.17 1018.25 1018.41 1018.57 1018.65 1018.77 1018.81 1018.89 1018.93 1019.01 1019.05 1019.17 1019.21 1019.29 1019.33 1019.37 1019.41 1019.45 1019.49 1019.49 1019.53 1019.57 1019.61 1019.65 1019.69 1019.69 1019.69 1019.73 1019.73 1019.69 1019.65 1019.69 1019.65 1019.61 1019.61 1019.61 1019.61 1019.65 1019.65 1019.65 1019.61 1019.61 1019.53 1019.49 1019.49 1019.49 1019.49 1019.53 1019.53 1019.53 1019.57 1019.61 1019.65 1019.73 1019.77 1019.77 1019.77 1019.77 1019.77 1019.77 1019.77 1019.81 1019.81 1019.89 1019.89 1019.93 1019.97 1019.97 1019.97
1018.17 1018.25 1018.41 1018.53 1018.65 1018.77 1018.81 1018.89 1018.97 1019.05 1019.05 1019.13 1019.17 1019.25 1019.33 1019.33 1019.37 1019.41 1019.49 1019.49 1019.49 1019.57 1019.61 1019.61 1019.65 1019.65 1019.69 1019.69 1019.69 1019.69 1019.69 1019.65 1019.65 1019.65 1019.65 1019.65 1019.65 1019.69 1019.69 1019.69 1019.65 1019.61 1019.57 1019.49 1019.49 1019.57 1019.61 1019.61 1019.61 1019.61 1019.61 1019.69 1019.77 1019.85 1019.89 1019.85 1019.85 1019.85 1019.89 1019.89 1019.89 1019.89 1019.89 1019.93 1019.97 1020.01 1020.05 1020.05 1020.05
1018.17 1018.25 1018.37 1018.53 1018.61 1018.77 1018.85 1018.93 1018.97 1019.05 1019.09 1019.13 1019.17 1019.21 1019.29 1019.33 1019.37 1019.41 1019.45 1019.49 1019.49 1019.53 1019.61 1019.61 1019.61 1019.61 1019.61 1019.65 1019.65 1019.69 1019.69 1019.69 1019.69 1019.69 1019.69 1019.69 1019.69 1019.73 1019.73 1019.73 1019.73 1019.65 1019.57 1019.53 1019.53 1019.61 1019.65 1019.73 1019.73 1019.73 1019.73 1019.77 1019.89 1019.89 1019.93 1019.93 1019.93 1019.97 1019.97 1019.97 1020.01 1020.01 1020.01 1020.01 1020.05 1020.05 1020.05 1020.05 1020.05
1018.17 1018.29 1018.41 1018.57 1018.65 1018.77 1018.85 1018.93 1018.97 1019.01 1019.05 1019.09 1019.17 1019.17 1019.21 1019.25 1019.33 1019.37 1019.41 1019.45 1019.49 1019.49 1019.57 1019.57 1019.61 1019.61 1019.61 1019.61 1019.65 1019.69 1019.69 1019.73 1019.73 1019.73 1019.73 1019.77 1019.77 1019.77 1019.77 1019.77 1019.77 1019.69 1019.61 1019.61 1019.61 1019.65 1019.73 1019.77 1019.81 1019.81 1019.85 1019.93 1020.01 1020.01 1020.01 1020.05 1020.05 1020.05 1020.05 1020.05 1020.09 1020.09 1020.09 1020.09 1020.09 1020.09 1020.09 1020.05 1020.09
1018.17 1018.29 1018.45 1018.57 1018.69 1018.77 1018.89 1018.93 1018.97 1019.05 1019.05 1019.09 1019.17 1019.17 1019.21 1019.25 1019.29 1019.33 1019.33 1019.37 1019.49 1019.53 1019.57 1019.61 1019.61 1019.61 1019.65 1019.69 1019.69 1019.69 1019.73 1019.77 1019.77 1019.77 1019.77 1019.77 1019.81 1019.81 1019.85 1019.85 1019.81 1019.77 1019.69 1019.65 1019.73 1019.77 1019.81 1019.89 1019.89 1019.93 1019.97 1020.05 1020.09 1020.09 1020.09 1020.09 1020.13 1020.13 1020.13 1020.13 1020.17 1020.17 1020.17 1020.17 1020.17 1020.17 1020.17 1020.13 1020.17
1018.13 1018.25 1018.37 1018.53 1018.69 1018.77 1018.89 1018.93 1018.97 1019.01 1019.05 1019.05 1019.09 1019.13 1019.17 1019.21 1019.25 1019.29 1019.33 1019.37 1019.45 1019.49 1019.57 1019.61 1019.65 1019.65 1019.69 1019.73 1019.77 1019.77 1019.77 1019.77 1019.81 1019.81 1019.81 1019.85 1019.85 1019.85 1019.85 1019.89 1019.89 1019.85 1019.77 1019.77 1019.77 1019.85 1019.89 1019.93 1019.97 1020.01 1020.05 1020.13 1020.17 1020.17 1020.17 1020.21 1020.21 1020.21 1020.25 1020.25 1020.29 1020.29 1020.25 1020.21 1020.17 1020.17 1020.17 1020.17 1020.21
1018.09 1018.17 1018.29 1018.45 1018.65 1018.77 1018.81 1018.89 1018.97 1019.01 1019.01 1019.05 1019.05 1019.09 1019.13 1019.17 1019.21 1019.29 1019.33 1019.33 1019.45 1019.49 1019.57 1019.61 1019.65 1019.69 1019.73 1019.77 1019.77 1019.81 1019.85 1019.85 1019.85 1019.85 1019.85 1019.89 1019.89 1019.89 1019.89 1019.89 1019.93 1019.89 1019.89 1019.85 1019.85 1019.89 1019.97 1020.01 1020.05 1020.05 1020.13 1020.17 1020.21 1020.25 1020.29 1020.29 1020.33 1020.33 1020.33 1020.37 1020.37 1020.33 1020.33 1020.33 1020.29 1020.25 1020.25 1020.25 1020.21
1018.05 1018.17 1018.25 1018.37 1018.49 1018.61 1018.73 1018.85 1018.89 1018.97 1018.97 1019.01 1019.05 1019.09 1019.13 1019.17 1019.21 1019.29 1019.33 1019.33 1019.41 1019.49 1019.57 1019.61 1019.65 1019.73 1019.77 1019.77 1019.85 1019.89 1019.89 1019.97 1019.93 1019.89 1019.89 1019.89 1019.89 1019.89 1019.89 1019.93 1019.97 1019.97 1019.93 1019.89 1019.89 1019.97 1020.01 1020.05 1020.05 1020.05 1020.09 1020.21 1020.25 1020.29 1020.33 1020.33 1020.37 1020.41 1020.45 1020.45 1020.45 1020.45 1020.41 1020.41 1020.37 1020.37 1020.37 1020.33 1020.21
1018.05 1018.17 1018.21 1018.33 1018.45 1018.53 1018.65 1018.77 1018.85 1018.89 1018.93 1018.97 1019.05 1019.05 1019.09 1019.13 1019.17 1019.21 1019.25 1019.33 1019.37 1019.49 1019.57 1019.65 1019.73 1019.73 1019.77 1019.77 1019.89 1019.93 1020.01 1020.05 1020.05 1020.01 1020.01 1019.97 1019.93 1019.89 1019.89 1019.97 1020.01 1020.01 1019.97 1019.93 1019.93 1019.97 1020.01 1020.05 1020.05 1020.05 1020.09 1020.21 1020.25 1020.29 1020.33 1020.37 1020.41 1020.45 1020.49 1020.53 1020.57 1020.53 1020.53 1020.49 1020.49 1020.45 1020.45 1020.49 1020.37
1018.05 1018.13 1018.17 1018.29 1018.41 1018.49 1018.61 1018.69 1018.77 1018.85 1018.89 1018.93 1018.97 1019.01 1019.05 1019.09 1019.17 1019.21 1019.29 1019.33 1019.41 1019.49 1019.61 1019.69 1019.77 1019.77 1019.77 1019.81 1019.89 1019.97 1020.05 1020.05 1020.09 1020.09 1020.05 1020.05 1020.01 1019.97 1019.97 1020.01 1020.05 1020.05 1020.01 1019.97 1019.93 1019.93 1019.97 1020.01 1020.05 1020.05 1020.05 1020.17 1020.25 1020.29 1020.29 1020.33 1020.45 1020.49 1020.57 1020.61 1020.61 1020.61 1020.61 1020.61 1020.57 1020.57 1020.57 1020.61 1020.57
Thickness
5632 5632 5631 5631 5631 5631 5631 5631 5632 5632 5632 5631 5630 5629 5628 5626 5625 5625 5625 5626 5627 5627 5629 5630 5631 5632 5632 5633 5634 5634 5633 5634 5634 5634 5635 5634 5634 5633 5633 5633 5633 5633 5632 5631 5631 5631 5630 5630 5629 5628 5627 5627 5627 5626 5626 5626 5626 5625 5625 5625 5625 5625 5624 5624 5624 5623 5622 5620 5620
5629 5629 5628 5628 5629 5629 5629 5629 5629 5629 5629 5629 5628 5627 5625 5623 5621 5619 5620 5621 5621 5623 5625 5626 5626 5627 5628 5630 5630 5630 5630 5630 5630 5631 5630 5630 5630 5629 5629 5629 5629 5628 5628 5628 5627 5626 5626 5626 5625 5625 5624 5624 5624 5623 5622 5623 5623 5622 5621 5621 5621 5621 5621 5621 5621 5621 5620 5619 5619
5626 5626 5626 5626 5626 5626 5626 5626 5626 5626 5626 5626 5626 5624 5622 5620 5618 5617 5617 5618 5619 5620 5621 5622 5622 5623 5624 5625 5625 5626 5625 5625 5625 5625 5625 5624 5624 5625 5625 5625 5624 5624 5624 5624 5623 5623 5623 5623 5622 5621 5621 5620 5620 5620 5619 5619 5619 5619 5618 5618 5618 5618 5618 5617 5618 5618 5618 5617 5617
5624 5624 5624 5624 5624 5624 5623 5623 5623 5623 5623 5623 5623 5621 5619 5617 5617 5616 5617 5617 5618 5619 5618 5618 5619 5620 5620 5621 5621 5621 5621 5621 5620 5620 5620 5621 5621 5621 5621 5621 5621 5620 5620 5620 5619 5619 5619 5619 5618 5618 5618 5617 5617 5617 5616 5616 5616 5616 5616 5615 5615 5615 5615 5614 5615 5615 5615 5615 5615
5621 5621 5621 5621 5620 5620 5620 5619 5619 5619 5619 5620 5620 5620 5619 5618 5619 5619 5619 5618 5619 5618 5617 5617 5616 5616 5617 5618 5618 5617 5617 5617 5617 5616 5616 5616 5616 5617 5617 5617 5617 5616 5615 5615 5615 5615 5615 5615 5615 5615 5615 5614 5614 5614 5613 5613 5613 5613 5613 5613 5613 5612 5612 5612 5611 5611 5612 5611 5611
5618 5618 5617 5617 5617 5616 5616 5616 5616 5616 5616 5617 5617 5617 5617 5617 5617 5617 5617 5616 5615 5614 5614 5614 5613 5614 5614 5615 5614 5614 5614 5613 5613 5613 5612 5612 5612 5612 5612 5612 5612 5612 5612 5612 5612 5612 5612 5612 5611 5611 5611 5611 5611 5611 5610 5610 5610 5609 5609 5609 5609 5609 5608 5608 5608 5608 5608 5607 5608
5616 5615 5614 5614 5613 5613 5613 5613 5613 5613 5614 5614 5614 5613 5613 5613 5614 5613 5613 5611 5611 5611 5610 5610 5610 5610 5610 5610 5609 5609 5609 5609 5608 5608 5608 5608 5607 5607 5607 5607 5608 5608 5608 5608 5608 5608 5608 5608 5607 5607 5607 5607 5607 5607 5607 5607 5606 5606 5606 5605 5606 5606 5605 5605 5605 5605 5604 5604 5603
5613 5612 5612 5610 5610 5609 5609 5610 5610 5610 5610 5610 5610 5609 5609 5609 5609 5609 5608 5608 5607 5607 5606 5606 5606 5606 5605 5605 5605 5604 5603 5603 5603 5603 5603 5603 5603 5603 5604 5604 5604 5604 5604 5604 5604 5604 5604 5604 5604 5603 5603 5603 5604 5603 5604 5603 5603 5602 5602 5602 5602 5603 5602 5602 5602 5601 5601 5600 5600
5609 5609 5608 5607 5607 5606 5606 5606 5607 5607 5606 5605 5606 5606 5605 5605 5605 5604 5604 5603 5603 5603 5603 5602 5602 5602 5601 5600 5600 5599 5599 5598 5598 5598 5599 5600 5600 5600 5600 5601 5601 5601 5601 5601 5601 5601 5600 5600 5600 5600 5600 5600 5600 5599 5599 5599 5600 5599 5599 5599 5599 5599 5599 5598 5598 5598 5597 5597 5596
5605 5604 5604 5604 5603 5603 5603 5603 5603 5602 5602 5601 5601 5601 5601 5601 5601 5601 5600 5600 5599 5599 5598 5598 5597 5598 5597 5596 5595 5595 5594 5594 5595 5595 5595 5596 5596 5596 5596 5596 5596 5596 5597 5597 5597 5597 5597 5596 5596 5596 5596 5596 5596 5596 5596 5596 5596 5596 5596 5596 5596 5596 5596 5596 5595 5595 5594 5593 5593
5601 5601 5600 5600 5600 5599 5599 5599 5599 5599 5599 5598 5598 5597 5598 5597 5597 5596 5596 5595 5595 5594 5594 5594 5594 5594 5593 5592 5592 5591 5591 5591 5591 5592 5592 5592 5592 5592 5592 5592 5592 5592 5593 5593 5593 5593 5593 5593 5593 5593 5593 5593 5594 5593 5593 5593 5593 5593 5593 5592 5592 5592 5593 5593 5592 5592 5591 5591 5590
5598 5597 5597 5597 5596 5596 5595 5595 5595 5595 5595 5595 5594 5594 5593 5593 5593 5593 5592 5592 5591 5590 5590 5590 5590 5590 5589 5588 5588 5588 5588 5588 5588 5588 5588 5588 5588 5588 5589 5589 5589 5589 5589 5590 5590 5590 5590 5590 5590 5590 5590 5590 5590 5590 5590 5590 5590 5590 5589 5589 5589 5589 5590 5589 5589 5588 5588 5587 5587
5594 5595 5594 5593 5593 5593 5593 5592 5592 5591 5591 5591 5591 5590 5590 5589 5589 5589 5589 5588 5587 5586 5586 5587 5587 5586 5586 5585 5585 5585 5585 5585 5585 5585 5585 5585 5585 5585 5586 5586 5586 5586 5586 5586 5587 5587 5587 5586 5587 5587 5587 5587 5587 5587 5587 5587 5587 5586 5586 5586 5586 5586 5586 5586 5585 5585 5584 5583 5582
5592 5592 5591 5591 5591 5590 5590 5589 5589 5588 5588 5588 5587 5587 5587 5586 5586 5586 5585 5584 5584 5584 5583 5583 5583 5583 5582 5582 5582 5582 5582 5582 5582 5582 5582 5582 5582 5582 5582 5582 5583 5583 5583 5583 5584 5583 5584 5584 5584 5584 5584 5584 5585 5584 5585 5584 5584 5584 5584 5583 5583 5583 5583 5582 5582 5581 5580 5579 5578
5589 5589 5588 5588 5588 5587 5587 5586 5586 5585 5585 5584 5584 5584 5584 5583 5583 5583 5582 5581 5581 5581 5581 5580 5580 5580 5580 5580 5579 5579 5579 5579 5579 5579 5578 5578 5579 5579 5579 5579 5580 5579 5579 5580 5580 5580 5580 5581 5581 5581 5581 5581 5581 5581 5581 5581 5581 5580 5581 5581 5580 5580 5580 5579 5579 5577 5576 5575 5575
5586 5586 5585 5585 5585 5584 5584 5583 5583 5582 5582 5581 5581 5581 5580 5580 5580 5579 5579 5578 5578 5578 5578 5578 5578 5577 5578 5577 5577 5576 5576 5576 5576 5576 5575 5575 5576 5576 5576 5576 5576 5576 5577 5577 5576 5577 5577 5577 5577 5577 5577 5577 5578 5577 5577 5577 5577 5577 5577 5577 5577 5577 5576 5576 5575 5574 5573 5573 5572
5583 5583 5583 5583 5582 5581 5581 5580 5580 5579 5579 5578 5578 5578 5578 5577 5577 5576 5576 5575 5575 5576 5575 5575 5575 5575 5574 5574 5574 5573 5573 5573 5573 5573 5573 5572 5572 5572 5573 5573 5573 5573 5573 5573 5573 5573 5573 5573 5573 5573 5573 5573 5574 5573 5573 5573 5573 5572 5573 5572 5572 5572 5572 5572 5571 5571 5570 5569 5568
5580 5580 5580 5580 5579 5578 5578 5577 5577 5577 5576 5576 5576 5575 5575 5575 5574 5574 5574 5573 5573 5572 5571 5571 5571 5571 5571 5570 5570 5570 5569 5569 5569 5569 5569 5569 5569 5569 5568 5569 5569 5569 5569 5569 5569 5569 5569 5569 5569 5569 5570 5569 5569 5569 5569 5568 5568 5568 5568 5568 5568 5567 5567 5567 5567 5567 5566 5565 5565
5577 5577 5577 5576 5575 5576 5575 5575 5574 5574 5573 5573 5573 5572 5572 5571 5571 5571 5570 5570 5569 5569 5568 5568 5567 5567 5566 5566 5566 5566 5566 5566 5565 5565 5565 5565 5565 5564 5564 5564 5564 5565 5565 5565 5565 5565 5565 5565 5565 5565 5565 5565 5564 5565 5564 5564 5564 5564 5563 5563 5563 5562 5562 5562 5562 5562 5561 5561 5560
5574 5575 5574 5573 5573 5573 5572 5572 5571 5570 5570 5570 5570 5569 5568 5568 5568 5567 5567 5566 5566 5566 5565 5563 5563 5563 5563 5562 5562 5561 5561 5561 5561 5561 5561 5561 5561 5560 5560 5560 5560 5560 5561 5560 5561 5561 5561 5561 5560 5561 5560 5560 5560 5559 5559 5559 5559 5558 5558 5558 5557 5557 5557 5557 5556 5557 5556 5556 5555
5572 5572 5571 5571 5570 5569 5569 5568 5568 5567 5567 5566 5566 5565 5565 5564 5564 5563 5563 5562 5562 5561 5560 5560 5559 5559 5558 5558 5558 5558 5557 5557 5557 5557 5556 5556 5556 5556 5556 5556 5556 5556 5556 5556 5556 5557 5556 5556 5556 5556 5556 5555 5555 5555 5554 5554 5554 5553 5553 5553 5552 5552 5552 5551 5552 5551 5552 5551 5551
5569 5568 5568 5567 5567 5566 5565 5565 5564 5563 5562 5562 5561 5561 5560 5560 5559 5559 5559 5558 5558 5557 5557 5556 5555 5555 5554 5554 5554 5553 5553 5553 5552 5552 5552 5551 5552 5551 5551 5551 5551 5551 5551 5551 5552 5552 5552 5552 5552 5551 5551 5551 5550 5550 5550 5549 5549 5548 5548 5548 5547 5547 5546 5546 5546 5546 5546 5546 5546
5565 5565 5564 5564 5563 5562 5561 5561 5560 5559 5558 5557 5557 5556 5556 5555 5555 5554 5554 5554 5553 5552 5552 5552 5551 5551 5551 5550 5550 5549 5549 5548 5548 5548 5548 5548 5547 5547 5547 5547 5547 5546 5547 5547 5547 5548 5547 5547 5547 5547 5546 5546 5546 5545 5545 5545 5544 5544 5543 5543 5542 5542 5542 5542 5541 5541 5542 5541 5542
5561 5560 5560 5559 5559 5558 5557 5557 5555 5554 5554 5553 5552 5551 5551 5551 5550 5550 5549 5549 5549 5548 5547 5547 5547 5547 5546 5546 5546 5545 5545 5545 5544 5543 5543 5544 5543 5543 5543 5543 5542 5542 5542 5542 5543 5543 5543 5543 5542 5542 5542 5541 5541 5540 5540 5540 5539 5539 5539 5538 5538 5537 5537 5537 5537 5537 5537 5537 5537
5557 5556 5556 5556 5555 5554 5554 5553 5552 5551 5549 5548 5548 5547 5547 5546 5546 5545 5545 5544 5543 5543 5543 5543 5543 5542 5542 5542 5542 5541 5540 5540 5540 5539 5539 5539 5539 5539 5538 5539 5538 5538 5538 5538 5539 5538 5539 5539 5538 5538 5537 5537 5536 5536 5536 5536 5535 5535 5534 5534 5534 5533 5533 5533 5532 5533 5532 5532 5533
5553 5552 5552 5551 5551 5550 5550 5549 5548 5547 5545 5544 5543 5542 5542 5541 5541 5540 5540 5539 5539 5539 5539 5539 5538 5538 5538 5537 5538 5537 5537 5536 5536 5535 5535 5535 5535 5534 5534 5534 5534 5534 5534 5535 5535 5535 5535 5534 5534 5534 5533 5533 5532 5532 5532 5531 5531 5531 5530 5530 5530 5529 5529 5528 5528 5528 5529 5528 5529
5549 5548 5548 5547 5547 5546 5546 5546 5545 5544 5542 5540 5539 5538 5537 5537 5537 5536 5536 5535 5536 5535 5535 5535 5534 5534 5534 5533 5533 5533 5533 5532 5532 5532 5531 5531 5530 5530 5531 5530 5530 5530 5530 5530 5531 5531 5530 5530 5530 5530 5529 5528 5528 5528 5528 5528 5527 5527 5526 5526 5526 5526 5525 5525 5525 5525 5525 5524 5524
5545 5545 5544 5545 5544 5544 5543 5542 5541 5539 5538 5536 5535 5535 5534 5533 5533 5533 5533 5532 5532 5532 5531 5530 5530 5530 5530 5529 5529 5529 5529 5529 5528 5528 5528 5527 5527 5526 5526 5526 5526 5526 5526 5526 5527 5527 5527 5527 5526 5526 5525 5524 5524 5524 5524 5524 5524 5523 5522 5522 5522 5521 5521 5521 5521 5520 5520 5520 5520
5542 5542 5541 5541 5540 5539 5539 5538 5537 5536 5535 5533 5532 5531 5531 5530 5530 5529 5529 5529 5528 5528 5527 5527 5526 5526 5525 5525 5525 5525 5525 5525 5525 5524 5524 5523 5523 5522 5523 5522 5522 5522 5522 5523 5523 5523 5523 5523 5522 5522 5521 5521 5520 5520 5520 5520 5520 5520 5519 5519 5518 5518 5518 5518 5517 5517 5517 5516 5516
5539 5539 5538 5537 5536 5536 5535 5534 5533 5532 5531 5530 5529 5528 5527 5527 5526 5525 5525 5525 5525 5524 5524 5523 5522 5522 5521 5521 5521 5521 5521 5521 5520 5520 5520 5519 5519 5518 5518 5518 5518 5518 5518 5519 5519 5519 5519 5519 5519 5518 5518 5517 5516 5516 5516 5516 5516 5516 5516 5515 5515 5514 5514 5514 5513 5513 5512 5512 5512
5536 5535 5534 5533 5532 5532 5531 5530 5530 5529 5528 5527 5526 5525 5524 5523 5523 5522 5522 5521 5521 5520 5520 5520 5519 5518 5518 5517 5517 5517 5517 5516 5516 5517 5516 5516 5515 5515 5514 5514 5514 5514 5515 5515 5515 5516 5515 5515 5515 5514 5514 5514 5513 5513 5512 5513 5513 5513 5512 5511 5511 5511 5511 5510 5509 5509 5508 5507 5507
5533 5532 5531 5529 5529 5528 5528 5526 5526 5526 5524 5523 5522 5521 5521 5520 5519 5519 5519 5518 5517 5517 5516 5516 5515 5515 5513 5513 5513 5513 5513 5512 5512 5513 5512 5512 5511 5511 5510 5510 5509 5510 5510 5511 5511 5511 5511 5511 5511 5511 5511 5510 5510 5509 5509 5509 5509 5509 5509 5508 5508 5507 5507 5505 5505 5505 5504 5503 5503
5530 5529 5528 5526 5525 5525 5524 5523 5522 5522 5520 5520 5519 5518 5517 5517 5516 5515 5515 5515 5514 5513 5513 5511 5511 5511 5510 5510 5510 5509 5509 5509 5508 5509 5508 5508 5507 5507 5506 5506 5506 5506 5507 5507 5507 5507 5507 5507 5507 5507 5507 5507 5506 5505 5505 5505 5505 5505 5504 5504 5503 5503 5502 5502 5501 5500 5499 5499 5499
5526 5525 5525 5524 5523 5522 5520 5519 5519 5518 5518 5517 5516 5515 5514 5513 5513 5512 5511 5511 5510 5510 5509 5508 5508 5507 5507 5506 5506 5505 5505 5505 5505 5504 5504 5504 5503 5503 5503 5502 5502 5503 5503 5504 5504 5503 5503 5503 5503 5503 5503 5503 5502 5501 5501 5501 5501 5501 5500 5500 5499 5499 5498 5498 5497 5496 5496 5496 5495
5523 5522 5521 5520 5519 5518 5517 5516 5516 5515 5515 5514 5513 5512 5511 5510 5509 5509 5508 5508 5507 5506 5505 5504 5504 5503 5503 5502 5502 5501 5501 5501 5501 5501 5500 5500 5499 5499 5498 5498 5498 5498 5499 5500 5499 5499 5499 5499 5499 5499 5499 5498 5497 5497 5497 5497 5497 5497 5496 5496 5495 5495 5494 5494 5493 5493 5493 5492 5492
5521 5519 5518 5517 5515 5514 5514 5513 5512 5511 5511 5510 5509 5509 5508 5507 5506 5506 5505 5504 5503 5502 5501 5501 5500 5499 5499 5499 5498 5498 5498 5497 5497 5496 5496 5496 5496 5495 5494 5494 5494 5495 5495 5496 5496 5496 5495 5495 5495 5495 5494 5494 5493 5493 5493 5493 5493 5493 5492 5492 5491 5491 5491 5490 5490 5490 5489 5489 5489
5517 5516 5515 5513 5512 5511 5510 5510 5509 5509 5508 5507 5507 5506 5505 5504 5503 5502 5502 5501 5500 5499 5497 5497 5496 5496 5496 5495 5495 5494 5493 5493 5493 5492 5492 5491 5491 5491 5491 5490 5490 5490 5491 5492 5492 5491 5491 5491 5490 5491 5490 5490 5490 5489 5489 5489 5489 5488 5488 5488 5487 5487 5487 5487 5486 5486 5486 5486 5486
5514 5513 5512 5511 5509 5508 5508 5507 5506 5505 5505 5504 5504 5503 5502 5501 5500 5499 5499 5498 5497 5495 5494 5494 5493 5493 5492 5491 5491 5490 5490 5489 5489 5489 5488 5488 5488 5487 5487 5487 5487 5487 5487 5487 5487 5488 5487 5487 5487 5487 5486 5486 5485 5485 5485 5485 5485 5484 5484 5484 5483 5483 5483 5483 5483 5483 5483 5483 5483
5511 5511 5510 5508 5507 5506 5505 5505 5504 5503 5502 5502 5501 5500 5500 5498 5498 5497 5495 5495 5494 5493 5492 5490 5490 5489 5489 5488 5487 5486 5486 5485 5485 5485 5485 5485 5484 5484 5484 5483 5483 5483 5484 5484 5484 5483 5483 5483 5483 5483 5483 5482 5482 5482 5482 5482 5481 5481 5480 5480 5480 5479 5479 5479 5480 5479 5479 5479 5480
5509 5508 5507 5506 5505 5504 5503 5502 5502 5501 5500 5499 5498 5497 5497 5496 5495 5495 5493 5492 5492 5491 5489 5488 5487 5486 5486 5486 5484 5483 5482 5482 5481 5481 5481 5481 5481 5481 5480 5480 5480 5480 5480 5480 5480 5480 5479 5479 5479 5479 5479 5478 5478 5478 5478 5478 5478 5477 5477 5476 5476 5476 5476 5475 5476 5475 5475 5475 5476
5507 5506 5505 5504 5503 5502 5501 5500 5500 5499 5498 5497 5496 5495 5495 5494 5493 5492 5491 5490 5489 5488 5487 5485 5484 5484 5483 5482 5481 5480 5479 5478 5478 5477 5477 5477 5477 5477 5477 5476 5476 5476 5477 5477 5477 5477 5477 5477 5476 5476 5476 5475 5475 5474 5475 5474 5474 5474 5473 5472 5472 5472 5472 5472 5472 5472 5472 5472 5472